Regional Weather Roundup
Issued by NWS Albany, NY

Home | Current Version | Previous Version | Graphics & Text | Print | Product List | Glossary Off
Versions: 1 2 3 4 5 6 7 8 9 10 11 12 13 14 15 16 17 18 19 20 21 22 23 24 25 26 27

000
ASUS41 KALY 051410
RWRALY

NEW YORK STATE HOURLY WEATHER ROUNDUP
NATIONAL WEATHER SERVICE ALBANY NY
1000 AM EDT THU MAY 05 2016

NOTE: "FAIR" INDICATES FEW OR NO CLOUDS BELOW 12,000 FEET WITH NO
SIGNIFICANT WEATHER AND/OR NO OBSTRUCTIONS TO VISIBILITY.

NYZ032-033-038>043-046>054-057>066-NYZ062>081-082-084-051500-
EAST


CITY           SKY/WX    TMP DP  RH WIND       PRES   REMARKS
ALBANY         CLOUDY    51  42  71 N10       29.79S
GLENS FALLS    CLOUDY    52  43  71 NE10      29.81S
POUGHKEEPSIE   CLOUDY    53  43  68 NE10      29.74S
NEWBURGH       CLOUDY    50  45  81 NE12      29.74R
MONTGOMERY     CLOUDY    51  44  77 NE15      29.73S
WHITE PLAINS   CLOUDY    49  41  74 NE14      29.70S
ISLIP          CLOUDY    48  41  76 NE21      29.69S
NEW YORK CITY  CLOUDY    51  44  77 NE14      29.71R
CENTRAL PARK   CLOUDY    50  42  74 VRB6      29.73S
$$

NYZ005>009-017-018-044>046-055-056-051500-
CENTRAL


CITY           SKY/WX    TMP DP  RH WIND       PRES   REMARKS
FULTON         CLOUDY    59  43  55 E10       29.80S
SYRACUSE       PTSUNNY   52  43  71 E7        29.79S
ROME           CLOUDY    54  43  66 NE5       29.79S
ELMIRA         CLOUDY    51  43  74 NE10      29.76R
BINGHAMTON     CLOUDY    47  41  80 NE8       29.74S
MONTICELLO     CLOUDY    46  43  87 NE3       29.74R
$$

NYZ026>034-041>043-087-051500-
NORTH


CITY           SKY/WX    TMP DP  RH WIND       PRES   REMARKS
WATERTOWN      PTSUNNY   55  45  68 NE13      29.81S
FORT DRUM      NOT AVBL
MASSENA        SUNNY     54  42  64 NE13      29.88R
SARANAC LAKE   CLOUDY    47  40  76 E8        29.82R
PLATTSBURGH    CLOUDY    53  43  68 N9        29.85
$$

NYZ001>004-010>016-019>021-085-051500-
WEST


CITY           SKY/WX    TMP DP  RH WIND       PRES   REMARKS
NIAGARA FALLS  PTSUNNY   55  46  71 NE10      29.79S
BUFFALO        PTSUNNY   52  47  83 NE10      29.79R
DUNKIRK        CLOUDY    49  47  93 NE12      29.78R
JAMESTOWN      CLOUDY    52  45  76 N7        29.75R
WELLSVILLE     CLOUDY    49  42  77 NE7       29.76R
ROCHESTER      MOSUNNY   56  44  64 NE17      29.79S
PENN YAN       CLOUDY    51  43  74 NE8       29.78R
$$

             KEY
       WCI = WIND CHILL INDEX
       VSB = VISIBILITY
       HX  = HEAT INDEX
$$




USA.gov is the U.S. government's official web portal to all federal, state and local government web resources and services.